ARIANE 44L+ R/B, 22725

Orbit data source: Space-Track

ARIANE 44L+ R/B, 22725 is space debris in HEO originally from a launch on Thu, 22 Jul 1993 UTC launched from the French Guiana (FRGUI). Debris objects in space refer to the collection of defunct objects orbiting the Earth. Examples of debris include non-operational satellites, rocket bodies, and fragments generated from explosions, collisions, or faulty payload assembly.

Loading next visibility...
Identifier
22725, 1993-048C
Orbit
HEO
Country
Flag of FRFR
Related business
Manufacturer
Ae/LesM
Mission
Spacecraft
Bus & Motor
ARIANE H10+/S, Unknown motor
Mass
2,260 kg wet, 2,080 kg dry
Launch date (UTC)
1993-07-22 (33 years ago)
Launch vehicle
Unknown
Launch site
French Guiana (FRGUI)
Object type
Payload
Rocket body
Debris
Shape & HBR
Cyl, Unknown HBR
Radar Cross Section
31.447 m², Large (>1 m²)

Expand to show TLE details & history
Last TLE update: 2 days ago

TLE from 2 days ago
0 ARIANE 44L+ R/B
1 22725U 93048C   26092.53146740  .00003218  00000-0  26471-2 0  9997
2 22725   6.9814  46.8429 6887833 126.9908 317.8988  2.74610431311039
Epoch: 2026-04-02T12:45Z
TLE epoch observation values (Epoch: 2026-04-02T12:45:18.783Z)
Latitude
-0.00003°
Longitude
24.76484°
Altitude
12,901.303 km
Speed
4.779 km/s
True Right ascension
03h 07m 53s
True Declination
0° 00' 00"
Sunlit
Object was in daylight at epoch
Visualization orbit readout
Latitude
Unknown
Longitude
Unknown
Altitude
Unknown
Speed
Unknown
Apparent Right ascension
Unknown
Apparent Declination
Unknown
Sunlit
N/A
Visualization observer readout
Local Sidereal Time
08:19:43
Azimuth
Unknown
Elevation
Unknown
Doppler factor
Unknown
Orbital elements
Apogee altitude
30,008.1 km
Perigee altitude
327.285 km
Semi-major axis
21,545.829 km
Eccentricity
0.68878
Inclination
6.9814°
RAAN
46.8429°
Arg. of periapsis
126.9908°
True anomaly
233.29816°
Mean anomaly
317.8988°
Eccentric anomaly
278.91072°
Mean motion
0.68628 °/min
Orbital period
524.57 mins
BSTAR
0.0026471
Loading maneuver chart data...
Computing Atmospheric mass density...
Loading historical data...
Loading historical data...
Loading historical data...
Loading historical data...
Loading historical data...
Loading historical data...
Loading historical data...
Other satellites on launch #48 in the year 1993 (1993-07-22 UTC)

Documentation

Showing up to 5 results
|